Location: La Fredeussais
(48.1780°N, 1.3980°W)
Time: 16:39:13
(UTC+00:00)

SJ 16-02 - Pass Details

Date: 09 May 2021
Orbit: 606 x 616 km, 75.0° (Epoch: 24 June)

Event Time Altitude Azimuth Distance (km) Brightness Sun altitude
Exits shadow 22:29:34 28° 224° (SW) 1,173 2.5 -21.0°
Maximum altitude 22:31:46 59° 294° (WNW) 717 1.8 -21.2°
Drops below altitude 10° 22:36:10 10° 15° (NNE) 1,989 4.7 -21.5°
Sets 22:38:27 0° 19° (NNE) 2,899 5.6 -21.6°
